TimePST,TemperatureF,Dew PointF,Humidity,Sea Level PressureIn,VisibilityMPH,Wind Direction,Wind SpeedMPH,Gust SpeedMPH,PrecipitationIn,Events,Conditions,WindDirDegrees,DateUTC
12:52 AM,39.0,30.9,73,29.86,10.0,Calm,Calm,-,N/A,,Clear,0,2013-02-09 08:52:00
1:52 AM,37.0,30.0,76,29.86,10.0,Variable,3.5,-,N/A,,Clear,0,2013-02-09 09:52:00
2:52 AM,37.9,30.9,76,29.86,10.0,Calm,Calm,-,N/A,,Clear,0,2013-02-09 10:52:00
3:52 AM,36.0,30.9,82,29.87,10.0,NW,3.5,-,N/A,,Clear,320,2013-02-09 11:52:00
4:52 AM,39.9,30.9,70,29.88,10.0,West,5.8,-,N/A,,Clear,280,2013-02-09 12:52:00
5:52 AM,41.0,30.9,67,29.89,10.0,West,3.5,-,N/A,,Clear,270,2013-02-09 13:52:00
6:52 AM,33.1,28.9,85,29.91,10.0,Calm,Calm,-,N/A,,Clear,0,2013-02-09 14:52:00
7:52 AM,43.0,33.1,68,29.94,10.0,Calm,Calm,-,N/A,,Clear,0,2013-02-09 15:52:00
8:52 AM,52.0,34.0,50,29.95,10.0,West,5.8,-,N/A,,Clear,280,2013-02-09 16:52:00
9:52 AM,55.0,30.9,40,29.97,10.0,Variable,6.9,-,N/A,,Clear,0,2013-02-09 17:52:00
10:52 AM,57.9,28.9,33,29.98,10.0,Variable,5.8,-,N/A,,Clear,0,2013-02-09 18:52:00
11:52 AM,59.0,28.9,32,29.98,10.0,Calm,Calm,-,N/A,,Clear,0,2013-02-09 19:52:00
12:52 PM,61.0,28.0,29,29.96,10.0,Variable,6.9,-,N/A,,Clear,0,2013-02-09 20:52:00
1:52 PM,63.0,28.0,27,29.95,10.0,North,10.4,-,N/A,,Clear,350,2013-02-09 21:52:00
2:52 PM,62.1,27.0,26,29.94,10.0,NW,4.6,-,N/A,,Clear,310,2013-02-09 22:52:00
3:52 PM,62.1,28.0,28,29.94,10.0,NNW,5.8,-,N/A,,Clear,330,2013-02-09 23:52:00
4:52 PM,60.1,28.0,30,29.95,10.0,NNW,11.5,-,N/A,,Clear,340,2013-02-10 00:52:00
5:52 PM,55.9,30.0,37,29.96,10.0,NW,6.9,-,N/A,,Clear,310,2013-02-10 01:52:00
6:52 PM,54.0,30.9,41,29.97,10.0,NNW,9.2,-,N/A,,Clear,330,2013-02-10 02:52:00
7:52 PM,53.1,30.9,43,29.99,10.0,NW,9.2,-,N/A,,Clear,320,2013-02-10 03:52:00
8:52 PM,51.1,32.0,48,30.01,10.0,NW,5.8,-,N/A,,Clear,310,2013-02-10 04:52:00
9:52 PM,50.0,32.0,50,30.02,10.0,NNW,9.2,-,N/A,,Clear,340,2013-02-10 05:52:00
10:52 PM,50.0,34.0,54,30.02,10.0,NNW,5.8,-,N/A,,Clear,340,2013-02-10 06:52:00
11:52 PM,50.0,34.0,54,30.03,10.0,NW,5.8,-,N/A,,Clear,320,2013-02-10 07:52:00